Temperature
15 15 15 15 15 15 14 14 14 14 14 14 13 13 13 13 13 13 13 13 13 13 12 12 12 12 12 12 12 11 11 11 11 11 11 11 11 11 10 10 10 10 10
15 15 15 14 14 14 14 14 14 13 13 13 13 13 13 13 13 13 13 13 12 12 12 12 12 12 12 12 11 11 11 11 11 11 11 11 11 10 10 10 10 10 10
15 15 14 14 14 14 14 14 13 13 13 13 13 13 13 13 13 13 12 12 12 12 12 12 12 12 12 11 11 11 11 11 11 11 11 11 10 10 10 10 10 10 10
15 14 14 14 14 14 13 13 13 13 13 13 13 13 13 13 12 12 12 12 12 12 12 12 11 11 11 11 11 11 11 11 11 11 11 10 10 10 10 10 10 9 9
14 14 14 14 14 13 13 13 13 13 13 12 12 12 12 12 12 12 12 12 12 12 12 11 11 11 11 11 11 11 11 11 11 10 10 10 10 10 10 9 9 9 9
14 14 14 14 13 13 13 12 12 12 12 12 12 12 12 12 12 12 12 12 11 11 11 11 11 11 11 10 10 10 10 10 10 10 10 10 10 10 10 9 9 9 8
14 14 13 13 13 13 13 12 12 12 12 12 12 12 12 12 11 11 11 11 11 11 11 11 11 11 11 10 10 10 10 10 10 10 10 10 10 9 9 9 9 9 9
13 13 13 13 13 12 12 12 12 12 12 12 12 11 11 11 11 11 11 11 11 11 11 10 10 10 10 10 10 10 10 10 10 10 10 9 9 9 9 9 9 8 8
13 13 13 12 12 12 12 12 12 11 11 11 11 11 11 11 11 11 10 10 10 10 10 10 10 10 10 10 10 10 10 10 10 9 9 9 9 9 9 8 8 8 8
13 12 12 12 12 12 12 11 11 11 11 11 11 11 10 10 10 10 10 10 10 10 10 10 10 10 10 9 9 9 9 10 9 9 9 9 9 9 8 8 8 8 8
12 12 12 12 12 11 11 11 11 11 10 10 10 10 10 10 10 10 10 10 10 10 10 10 9 9 9 9 9 9 9 9 9 9 9 9 9 8 8 8 8 8 7
12 12 11 11 11 11 11 11 10 10 10 10 10 10 10 10 9 9 9 9 9 9 9 9 9 9 9 9 9 9 9 8 8 8 8 8 8 8 8 8 7 7 7
11 11 11 11 11 10 10 10 10 10 9 9 9 9 9 9 9 9 9 9 9 9 9 9 9 9 8 8 8 8 8 8 8 8 8 8 8 8 7 7 7 7 7
11 10 10 10 10 10 10 10 9 9 9 9 9 9 9 9 9 9 9 9 9 9 9 9 8 8 8 8 8 8 8 8 7 7 8 7 7 7 7 7 7 7 7
10 10 10 10 9 9 9 9 9 9 9 9 8 8 8 8 9 8 8 8 8 8 8 8 8 8 8 8 8 8 7 7 7 7 7 7 7 7 7 7 6 6 6
9 9 9 9 9 9 9 9 9 9 9 8 8 8 8 8 8 8 8 8 7 7 7 7 7 7 7 7 7 7 7 7 7 7 7 7 7 6 6 6 6 6 6
9 9 9 9 9 8 8 8 8 8 8 8 8 8 8 8 8 7 7 7 7 7 7 7 7 7 7 7 7 7 7 7 7 6 6 6 6 6 6 6 5 5 5
8 8 8 8 8 8 8 8 8 8 8 8 8 8 8 7 7 7 7 7 6 6 6 6 6 6 6 6 6 6 6 6 6 6 6 6 5 5 5 5 5 5 5
8 8 8 8 8 7 7 7 7 7 7 7 7 7 7 7 7 7 6 6 6 6 6 6 6 6 6 6 6 6 6 6 6 6 5 5 5 5 5 5 4 4 4
7 7 7 7 7 7 7 6 6 6 6 6 7 7 7 6 6 6 6 6 6 6 6 6 6 5 5 5 5 5 5 5 5 5 5 5 5 5 4 4 4 4 4
7 7 7 6 6 6 6 6 6 6 6 6 6 6 6 6 6 6 6 5 5 5 5 5 5 5 5 5 5 5 5 5 5 5 4 4 4 4 4 4 3 3 3
6 6 6 6 6 6 6 5 5 5 5 5 5 5 5 5 5 5 5 5 5 5 5 4 4 4 4 4 4 4 4 4 4 4 4 4 4 4 3 3 3 3 3
6 6 6 5 5 5 5 5 5 5 5 5 5 5 5 5 4 4 5 5 4 4 4 4 4 4 4 4 4 4 4 4 4 4 4 4 3 3 3 3 3 3 3
5 5 5 5 5 5 4 4 4 4 4 4 4 4 4 4 4 4 4 4 4 4 4 4 4 4 4 3 3 3 3 3 3 3 3 3 3 3 2 2 2 2 2
5 5 5 4 4 4 4 4 4 4 4 4 4 4 3 4 4 3 4 4 3 3 3 3 3 3 3 3 3 3 3 3 3 3 3 2 2 2 2 2 2 2 2
4 4 4 4 4 3 3 3 3 3 3 3 3 3 3 3 3 3 3 3 3 3 3 3 3 3 3 3 3 3 3 3 3 3 2 2 2 2 2 2 2 1 1
Wind_Speed
3 3 3 2 2 2 3 3 3 2 2 3 3 3 3 3 3 3 3 3 4 3 2 3 3 3 2 2 2 2 2 3 3 2 1 1 1 1 2 2 2 2 3
4 3 3 2 2 2 2 2 2 2 2 2 3 3 3 3 3 4 4 4 4 4 4 3 3 2 3 2 3 3 3 3 3 3 1 1 2 2 2 2 2 3 3
4 3 3 2 2 2 2 2 2 2 2 2 2 3 3 3 4 4 4 4 5 5 5 5 4 4 3 3 3 3 3 2 2 2 2 1 1 1 1 1 2 2 3
3 3 3 3 4 3 3 3 3 3 3 3 3 3 3 4 4 4 4 4 4 4 4 4 4 5 5 5 4 4 3 3 2 2 1 1 1 1 0 1 2 2 2
3 3 4 4 3 3 3 3 2 2 3 3 2 2 2 3 4 4 4 4 4 4 3 4 4 5 6 5 4 5 5 4 3 3 2 1 2 1 2 2 2 2 3
4 4 3 2 3 3 3 2 2 2 2 2 2 2 2 3 4 5 5 4 4 4 4 4 4 4 6 7 6 6 7 6 5 4 3 4 4 4 2 2 2 1 3
4 3 3 3 3 3 3 2 2 3 2 2 3 3 3 4 5 5 6 4 4 5 5 4 3 4 4 4 5 5 6 7 7 6 5 6 5 6 5 4 4 4 4
3 2 2 3 3 3 3 3 3 2 3 3 3 3 3 4 5 5 6 4 4 4 5 5 5 4 4 4 3 3 4 5 6 5 6 6 6 6 7 6 5 3 2
3 3 3 3 3 3 3 3 3 2 2 2 2 3 4 5 5 5 3 2 3 4 4 4 4 5 6 6 4 4 4 4 6 8 8 7 7 6 6 3 3 2 2
4 4 4 3 4 4 4 4 3 3 3 2 2 3 3 5 5 5 4 2 3 3 3 3 5 6 6 6 5 5 5 5 3 3 4 5 5 6 8 7 6 4 2
3 3 2 3 4 4 4 3 3 3 2 2 3 4 4 5 5 5 4 3 4 3 3 4 4 7 7 8 7 6 8 5 3 3 3 3 2 3 4 6 7 6 5
2 2 2 2 3 2 2 2 2 3 3 3 3 4 3 4 5 5 6 6 5 4 5 4 5 6 7 8 7 7 7 4 2 2 2 3 3 3 4 5 7 8 7
2 2 2 2 2 2 3 3 3 3 3 4 3 4 4 3 4 6 6 7 7 5 5 6 6 6 6 6 7 8 5 3 3 3 4 5 4 4 2 2 2 3 3
3 3 3 3 3 2 3 3 3 4 4 4 4 5 4 4 4 4 4 5 6 6 5 5 5 5 5 5 4 4 4 4 4 5 4 4 2 2 3 3 2 2 1
3 3 3 3 3 3 3 4 5 6 6 6 6 5 5 5 7 6 4 4 4 4 2 1 1 2 3 3 3 3 3 3 4 4 4 3 3 3 3 3 3 3 3
3 3 3 3 3 2 3 3 5 6 7 8 8 6 6 7 7 6 6 7 6 4 2 2 4 4 5 5 5 4 4 4 5 4 4 4 4 4 3 2 3 3 4
4 4 3 3 3 3 3 3 4 5 5 6 8 8 8 8 7 7 6 6 5 4 4 4 5 5 5 5 5 5 5 5 5 5 5 5 4 4 4 3 3 3 4
4 5 4 4 3 3 4 4 4 4 4 4 5 7 7 8 7 7 5 3 3 4 5 5 5 5 5 5 5 5 5 4 4 5 5 5 4 4 4 4 4 5 5
4 4 4 3 3 4 4 4 4 4 4 4 4 4 6 6 6 6 4 4 5 5 6 6 5 5 5 5 5 5 5 5 5 5 5 6 5 5 5 5 5 6 5
4 6 4 3 3 3 3 3 3 3 4 4 4 5 3 2 2 3 3 4 5 5 5 6 5 5 5 5 5 5 5 5 6 6 6 6 5 5 6 7 6 6 6
3 4 5 4 3 4 4 4 4 4 4 4 5 5 4 3 4 5 4 5 6 6 6 5 5 5 6 5 5 6 6 6 6 6 6 6 5 6 6 6 6 6 5
3 3 3 4 4 4 4 4 4 4 4 5 4 4 5 4 4 4 5 5 6 6 5 5 5 6 6 6 6 6 6 6 6 6 6 6 6 6 6 5 5 5 6
3 3 3 3 3 4 4 3 4 4 4 5 4 4 4 4 5 5 5 5 5 5 5 5 6 5 5 5 6 6 7 7 7 7 7 6 6 6 6 6 7 6 6
3 3 3 3 3 3 3 4 4 4 5 5 5 4 4 5 5 6 6 5 5 5 4 5 5 7 8 6 6 6 7 7 7 6 8 7 7 6 6 6 7 7 7
2 3 3 3 3 3 3 4 4 4 4 5 5 5 5 5 5 5 5 5 5 5 5 5 5 6 8 9 8 7 9 10 9 7 6 7 7 7 7 7 7 7 7
2 3 3 2 2 3 3 3 4 4 4 5 5 5 5 5 5 5 5 4 5 5 5 5 6 7 8 8 8 9 9 10 10 9 6 5 7 7 7 7 7 7 7
Wind_Direction
183 180 173 183 182 175 194 203 201 214 213 202 204 202 197 189 182 180 191 181 180 185 183 180 197 183 170 171 169 171 173 162 193 253 257 279 231 266 290 272 274 285 291
185 178 186 186 171 174 206 219 206 214 219 216 205 203 207 201 192 193 202 198 193 196 197 183 199 185 180 183 185 191 192 185 181 215 237 252 250 250 252 262 278 280 276
179 177 184 186 187 200 220 223 215 214 223 217 203 211 214 207 201 205 204 205 205 205 200 195 201 183 199 201 197 199 200 191 175 183 215 231 269 276 310 293 288 293 284
176 183 198 209 209 208 215 219 216 211 212 217 220 223 219 210 204 205 206 210 210 212 209 207 203 201 207 202 204 198 184 176 168 172 200 231 243 294 255 259 293 303 292
178 194 211 216 209 202 211 224 220 212 220 216 218 237 234 218 214 204 207 209 208 216 220 217 217 216 217 208 212 198 182 179 175 180 199 210 229 220 233 227 246 287 289
185 205 211 206 204 206 210 213 212 223 229 215 216 223 232 244 242 218 207 209 207 208 218 227 229 225 231 227 227 205 187 184 188 188 201 215 230 219 207 218 209 240 277
194 205 205 203 212 221 214 202 216 225 220 224 231 226 239 254 253 241 224 207 209 215 216 218 231 228 219 220 228 220 213 212 199 189 201 218 216 210 196 211 215 214 236
193 209 215 206 216 215 200 212 228 228 227 236 246 247 253 269 264 252 238 212 217 224 223 218 220 229 218 204 199 214 229 230 221 211 215 225 220 206 201 207 212 217 266
208 218 225 214 208 200 212 227 227 215 224 237 249 246 252 270 269 259 230 204 224 236 236 228 221 226 232 206 188 210 237 253 243 232 236 241 241 225 198 164 166 182 254
224 224 223 216 209 212 218 224 222 210 222 230 254 252 253 261 267 256 226 203 220 239 244 244 234 232 236 207 195 201 230 247 238 241 244 250 242 226 208 194 187 192 214
226 226 227 220 219 221 221 216 210 209 221 237 252 262 260 263 269 258 228 209 220 228 238 245 245 238 236 227 217 214 233 235 220 225 241 245 238 225 217 207 198 194 203
203 210 227 231 230 230 215 222 213 208 220 240 252 270 269 268 264 258 240 231 226 219 235 241 242 239 236 233 227 235 240 230 202 209 231 241 241 240 234 224 220 217 220
194 221 235 245 240 226 214 222 224 218 221 236 241 254 267 269 266 260 252 244 238 231 242 244 243 241 236 236 236 235 228 212 200 216 234 243 242 236 221 223 231 222 235
207 231 236 233 247 250 235 226 220 221 224 232 235 248 262 269 267 259 249 251 248 244 250 256 252 243 232 236 243 240 224 209 206 221 234 242 238 220 218 210 211 203 233
222 239 247 242 237 243 244 236 231 232 226 224 229 230 236 251 254 251 242 236 231 232 231 216 216 231 234 239 242 239 223 213 223 226 224 233 235 237 237 215 203 200 217
228 247 244 239 240 240 249 280 273 254 255 244 242 238 244 249 261 255 250 255 251 234 199 224 232 232 234 232 231 231 227 225 226 224 224 225 228 231 236 227 212 216 233
219 233 240 236 232 232 237 246 279 298 290 269 256 252 250 256 255 253 251 253 244 212 210 228 233 237 240 236 231 229 230 228 220 219 225 227 227 229 228 228 223 228 239
226 234 234 230 229 230 233 240 244 255 278 288 279 265 263 262 260 255 249 234 240 222 222 229 233 237 238 238 236 236 235 228 220 221 225 225 221 224 229 231 229 232 238
230 235 234 229 231 234 236 239 246 251 258 274 291 293 281 275 274 270 236 214 227 232 231 235 236 237 239 239 237 233 230 229 227 222 224 225 222 222 231 233 232 236 235
239 245 245 234 230 235 239 240 244 248 255 264 268 272 284 281 266 266 238 231 233 235 234 236 239 240 239 239 237 233 231 231 228 228 229 228 226 225 231 232 230 231 236
247 251 252 246 231 231 236 239 242 243 249 259 264 268 267 251 253 255 249 235 233 236 236 236 237 239 240 240 238 235 233 234 231 228 228 229 229 231 233 231 230 230 234
241 245 241 238 238 237 240 240 241 244 248 256 270 279 274 258 258 260 257 251 242 239 237 234 237 238 235 235 235 236 238 239 236 230 228 228 229 231 233 234 233 231 229
243 248 251 252 247 251 253 247 243 246 253 256 261 269 269 260 259 261 263 264 255 248 240 233 240 245 243 241 238 234 235 239 237 230 230 230 229 230 230 234 234 233 233
244 246 249 255 252 243 245 251 251 253 256 259 262 260 260 262 263 263 262 262 263 257 245 237 239 245 246 247 249 247 245 247 244 237 228 228 228 228 227 231 234 233 233
251 254 253 251 249 249 250 253 253 254 260 263 265 266 265 265 270 272 270 267 265 262 258 254 256 254 253 250 250 251 249 242 239 237 232 227 228 228 228 229 232 234 233
263 262 264 260 257 257 255 257 258 258 259 263 263 264 265 265 266 270 271 269 268 268 265 261 259 262 266 262 256 255 253 247 241 237 236 230 226 230 229 231 230 229 229
Height
1530 1531 1532 1533 1534 1534 1534 1534 1535 1535 1536 1536 1537 1537 1538 1538 1538 1538 1539 1539 1540 1540 1540 1541 1541 1541 1541 1542 1542 1542 1542 1542 1541 1541 1541 1541 1541 1541 1541 1540 1540 1539 1539
1528 1529 1530 1530 1531 1531 1531 1531 1532 1532 1533 1533 1534 1534 1535 1535 1535 1536 1536 1536 1537 1537 1538 1538 1538 1539 1539 1539 1539 1539 1539 1539 1539 1539 1539 1538 1538 1538 1538 1538 1537 1537 1536
1525 1526 1527 1527 1528 1528 1529 1529 1529 1529 1530 1530 1531 1531 1532 1532 1533 1533 1533 1534 1534 1534 1535 1535 1535 1536 1536 1536 1536 1536 1536 1536 1536 1536 1536 1536 1535 1535 1535 1535 1534 1534 1534
1522 1523 1524 1525 1525 1525 1526 1526 1527 1527 1527 1527 1528 1528 1529 1529 1530 1530 1530 1530 1531 1531 1531 1532 1532 1533 1533 1533 1533 1533 1533 1533 1533 1533 1533 1533 1533 1532 1532 1532 1531 1531 1531
1519 1520 1521 1522 1522 1523 1523 1523 1524 1524 1524 1525 1525 1525 1525 1526 1526 1526 1527 1527 1527 1527 1528 1528 1529 1529 1530 1530 1530 1530 1530 1530 1530 1530 1530 1529 1529 1529 1529 1528 1528 1528 1527
1516 1517 1518 1519 1519 1519 1520 1520 1520 1520 1521 1521 1521 1522 1522 1522 1522 1523 1523 1523 1523 1524 1524 1525 1525 1525 1526 1526 1526 1526 1527 1527 1526 1527 1526 1526 1526 1526 1526 1525 1525 1524 1523
1513 1514 1514 1515 1516 1516 1517 1517 1517 1517 1517 1517 1518 1518 1518 1518 1518 1519 1519 1519 1519 1520 1520 1521 1521 1521 1522 1522 1522 1522 1523 1523 1523 1523 1523 1523 1522 1522 1522 1522 1521 1520 1520
1510 1510 1511 1512 1512 1513 1513 1513 1513 1514 1514 1514 1514 1514 1514 1515 1515 1515 1515 1515 1515 1516 1516 1517 1517 1517 1518 1518 1518 1518 1519 1519 1519 1519 1519 1519 1519 1519 1518 1518 1518 1517 1516
1507 1507 1508 1508 1509 1509 1509 1510 1510 1510 1510 1510 1510 1510 1510 1511 1511 1511 1511 1511 1511 1512 1512 1513 1513 1514 1514 1514 1514 1514 1514 1515 1515 1515 1515 1515 1515 1515 1514 1514 1513 1513 1512
1504 1504 1505 1505 1505 1505 1506 1506 1506 1506 1506 1506 1506 1506 1506 1506 1507 1507 1507 1507 1507 1508 1508 1508 1509 1509 1510 1510 1510 1510 1510 1510 1511 1510 1510 1510 1510 1510 1510 1510 1509 1509 1508
1501 1501 1501 1502 1502 1502 1502 1502 1502 1502 1502 1502 1502 1502 1502 1502 1503 1503 1503 1503 1503 1503 1503 1504 1504 1505 1505 1505 1505 1505 1505 1506 1506 1506 1505 1505 1505 1505 1505 1505 1504 1504 1504
1498 1498 1498 1498 1498 1498 1498 1498 1498 1498 1498 1497 1497 1497 1497 1498 1498 1498 1499 1499 1499 1499 1499 1499 1500 1500 1500 1501 1500 1501 1501 1501 1501 1500 1500 1500 1500 1500 1500 1500 1500 1499 1499
1495 1495 1495 1495 1495 1494 1494 1494 1494 1494 1493 1493 1493 1492 1492 1493 1493 1494 1494 1494 1494 1494 1494 1494 1495 1495 1495 1495 1495 1495 1496 1495 1495 1495 1494 1494 1495 1495 1494 1494 1494 1494 1494
1491 1491 1491 1491 1491 1490 1490 1490 1489 1489 1489 1488 1488 1488 1488 1488 1488 1489 1489 1489 1489 1489 1489 1489 1489 1489 1489 1489 1489 1490 1489 1489 1489 1489 1489 1489 1489 1489 1489 1488 1488 1488 1488
1487 1487 1487 1487 1486 1486 1486 1486 1485 1485 1485 1484 1484 1484 1483 1483 1483 1484 1484 1484 1484 1484 1483 1483 1483 1483 1483 1483 1483 1483 1484 1484 1483 1483 1484 1483 1483 1483 1483 1483 1483 1482 1482
1483 1483 1483 1482 1482 1482 1481 1481 1480 1480 1480 1479 1479 1479 1478 1478 1478 1478 1478 1478 1478 1478 1478 1477 1477 1476 1477 1477 1477 1477 1477 1477 1477 1477 1477 1477 1477 1477 1477 1477 1477 1476 1476
1479 1479 1478 1478 1478 1477 1477 1476 1475 1475 1475 1475 1474 1474 1473 1473 1473 1472 1472 1472 1472 1472 1471 1470 1470 1470 1471 1471 1471 1471 1470 1471 1471 1471 1471 1471 1471 1471 1471 1470 1470 1470 1470
1475 1475 1474 1473 1473 1473 1472 1472 1471 1470 1469 1469 1469 1468 1468 1467 1467 1467 1466 1466 1465 1465 1464 1464 1464 1464 1465 1465 1465 1465 1465 1465 1465 1465 1465 1465 1465 1465 1465 1465 1465 1465 1465
1471 1470 1470 1469 1468 1468 1468 1467 1466 1465 1464 1463 1463 1463 1462 1461 1461 1461 1460 1459 1458 1458 1458 1458 1458 1458 1458 1458 1458 1458 1458 1458 1458 1458 1458 1458 1459 1459 1459 1459 1459 1459 1460
1466 1466 1465 1464 1464 1463 1462 1462 1461 1460 1459 1458 1458 1457 1456 1456 1454 1454 1453 1452 1452 1451 1451 1451 1451 1451 1451 1452 1452 1452 1452 1451 1451 1451 1452 1452 1452 1453 1453 1453 1453 1453 1453
1461 1461 1460 1460 1459 1458 1457 1456 1456 1455 1454 1453 1453 1452 1451 1450 1449 1448 1447 1447 1446 1445 1445 1445 1445 1445 1445 1445 1445 1445 1445 1444 1444 1445 1445 1445 1446 1446 1446 1447 1447 1447 1447
1457 1456 1455 1454 1454 1453 1452 1451 1450 1450 1449 1448 1447 1446 1446 1445 1443 1442 1442 1441 1441 1440 1440 1439 1439 1439 1438 1439 1439 1438 1438 1437 1437 1438 1438 1438 1439 1439 1440 1440 1441 1441 1441
1452 1451 1450 1449 1448 1448 1447 1446 1445 1444 1443 1442 1442 1441 1440 1439 1438 1437 1436 1436 1435 1434 1434 1433 1433 1432 1432 1432 1432 1432 1431 1431 1431 1431 1432 1431 1432 1432 1433 1433 1434 1434 1435
1447 1446 1445 1444 1443 1442 1441 1440 1440 1439 1438 1437 1437 1436 1435 1434 1433 1432 1431 1430 1429 1428 1428 1427 1426 1426 1426 1425 1425 1425 1425 1425 1425 1425 1425 1425 1424 1425 1426 1427 1427 1428 1428
1442 1441 1440 1439 1438 1437 1436 1435 1434 1434 1433 1432 1432 1431 1430 1429 1428 1426 1425 1424 1423 1423 1422 1421 1421 1420 1419 1419 1418 1418 1418 1418 1418 1418 1418 1418 1418 1418 1419 1420 1420 1421 1422
1438 1437 1436 1435 1434 1433 1431 1430 1429 1429 1428 1427 1427 1426 1425 1423 1422 1421 1420 1419 1418 1417 1416 1415 1415 1414 1413 1413 1412 1411 1411 1411 1411 1411 1411 1411 1411 1412 1413 1414 1414 1415 1416